"Pseudo-MPEC" for P10LfTu

Created 2019 Jan 17 15:18:26 UT using Find_Orb

Click here for an explanation of pseudo-MPECs

 
 Astrometry: 
     P10LfTu  C2019 01 090r.Gtm+wjKUScchAstrometryU;Y4+nE26qa!h.1a=X[0=XTCgpCF51
     P10LfTu  C2019 01 09uV`iUrYMZ[;hl_%8Ivp#?8sb2,HOtI$P0n`('3(_/+DhwndmK*_EF51
     P10LfTu  C2019 01 09r%d\MJ?U7[q@tZredacted;%?gAI8%/7K'wt\1Gau)5D78oW2*\+F51
     P10LfTu  C2019 01 09R=VXx-,Z-u:kd:m.Q+XcrbE#H^PPF;(=K:oY!Owb$kSi_!Qk`/TXF51
     P10LfTu KC2019 01 10J7',T,!IeVR=W.LnMQ_gclick;mFfF\:8H))K85aU\nr%ZL%(SVAH21
     P10LfTu KC2019 01 10W,'YKdbvQ`82287G?OLLKmx9hj(yvcXGNtwPLSnfkZy^qF#gO):QH21
     P10LfTu KC2019 01 10X,wZZLWdR13Vmq:?=hereq,m!GRlaKN^jajBA$nRBF=UdtI\4BS`H21
     P10LfTu ^C2019 01 10.66572010 34 32.407+43 40 49.33   ~1AKI 21.50GVNEOCP568
     P10LfTu ^C2019 01 10.66667010 34 32.333+43 40 50.02   ~1AKI 21.54GVNEOCP568
     P10LfTu ^C2019 01 10.66764710 34 32.256+43 40 50.69   ~1AKI 21.52GVNEOCP568
     P10LfTu  C2019 01 17uc$G/ek+`Iy8lyVG=*JSrl-Xua?$c2yM+#N:B@E(ixu5wQ]n5aH-V06
     P10LfTu  C2019 01 17-ZL`aWd5K`UJiyHd4yoKG*3o7u$W$Oqe/CKJTifor_%Po)sn+]\*V06
     P10LfTu  C2019 01 17'JY9N.0mq-uab[@lPIexTZ8.BCxqx%AXrI@(li5gPwJiRs.PM0e?V06
     P10LfTu  C2019 01 17usn$nexplanationP@:t/'J,*OO6H]gPmRoe92'rNWM!%+o/K/)[V06

Station data:
(568) Mauna Kea  (N19.826116 W155.472200)  US/Hawaii.
(F51) Pan-STARRS 1, Haleakala  (N20.707235 W156.255910)  US/Hawaii.
   Observers N. Primak, A. Schultz, S. Watters, J. Thiel, T. Goggia. Measurer
   PS1 Science Consortium. 1.8-m Ritchey-Chrétien + CCD.
(H21) Astronomical Research Observatory, Westfield  (N39.483057 W87.968270)
   US/Illinois. 0.76-m f/3.0 astrograph + CCD.
(V06) Catalina Sky Survey-Kuiper  (N32.416847 W110.732550)  US/Arizona.
   Observers B. M. Africano, E. J. Christensen, G. A. Farneth, D. C. Fuls, A.
   R. Gibbs, A. D. Grauer, H. Groeller, J. A. Johnson, R. A. Kowalski, S. M.
   Larson, G. J. Leonard, R. L. Seaman, F. C. Shelly. 1.55-m reflector + CCD.

Orbital elements:  P10LfTu
   Perihelion 2018 Aug 1.894523 +/- 0.956 TT = 21:28:06 (JD 2458332.394523)
Epoch 2019 Jan 17.0 TT = JDT 2458500.5   Earth MOID: 0.1187   AutoNEOCP
M  54.74036418 +/- 0.6              (J2000 ecliptic)
n   0.32563105 +/- 0.00219          Peri.  347.61922 +/- 0.22
a   2.09243593 +/- 0.00936          Node    29.69461 +/- 0.20
e   0.4700424 +/- 0.00241           Incl.   17.44342 +/- 0.037
P   3.03                   H 19.4   G  0.15   U  8.6  
q 1.10890213 +/- 0.00107    Q 3.07596973 +/- 0.0188
From 14 observations 2019 Jan. 9-17; mean residual 0".14
Residuals in arcseconds: 
190109 F51  .08-  .17-    190110 H21  .09+  .08+    190117 V06  .02+  .47-    
190109 F51  .05+  .00     190110 H21  .06+  .07+    190117 V06  .17-  .28+    
190109 F51  .01+  .06+    190110 568  .00   .12-    190117 V06  .05-  .02+    
190109 F51  .00   .03-    190110 568  .00   .09-    190117 V06  .19+  .17+    
190110 H21  .13-  .29+    190110 568  .01-  .10-    

Ephemerides (geocentric):
Date (UTC) HH   RA              Dec         delta   r     elong  mag " sig PA
---- -- -- --  -------------   -----------  ------ ------ -----  --- ---- ---
2019 01 17 15  10 24 32.486   +44 57 21.50  1.0826 1.9485 141.1 22.0 .096  37
2019 01 17 16  10 24 28.425   +44 57 46.36  1.0826 1.9487 141.1 22.0 .108  36
2019 01 17 17  10 24 24.360   +44 58 11.19  1.0827 1.9490 141.1 22.0 .121  36
2019 01 17 18  10 24 20.289   +44 58 35.98  1.0828 1.9492 141.2 22.0 .133  36
2019 01 17 19  10 24 16.213   +44 59 00.73  1.0828 1.9495 141.2 22.0 .146  35
2019 01 17 20  10 24 12.133   +44 59 25.45  1.0829 1.9497 141.2 22.0 .159  35
2019 01 17 21  10 24 08.047   +44 59 50.12  1.0830 1.9500 141.3 22.0 .172  35
2019 01 17 22  10 24 03.956   +45 00 14.77  1.0830 1.9502 141.3 22.0 .185  35
2019 01 17 23  10 23 59.860   +45 00 39.37  1.0831 1.9505 141.3 22.0 .199  35
2019 01 18 00  10 23 55.759   +45 01 03.94  1.0832 1.9507 141.3 22.0 .212  35
2019 01 18 01  10 23 51.653   +45 01 28.47  1.0833 1.9510 141.4 22.0 .225  34
2019 01 18 02  10 23 47.542   +45 01 52.96  1.0833 1.9512 141.4 22.0 .239  34
2019 01 18 03  10 23 43.426   +45 02 17.42  1.0834 1.9514 141.4 22.0 .253  34
2019 01 18 04  10 23 39.305   +45 02 41.83  1.0835 1.9517 141.5 22.0 .267  34
2019 01 18 05  10 23 35.179   +45 03 06.21  1.0836 1.9519 141.5 22.0 .281  34
2019 01 18 06  10 23 31.048   +45 03 30.55  1.0836 1.9522 141.5 22.0 .295  34
2019 01 18 07  10 23 26.912   +45 03 54.86  1.0837 1.9524 141.5 22.0 .309  34
2019 01 18 08  10 23 22.771   +45 04 19.12  1.0838 1.9527 141.6 22.0 .323  34
2019 01 18 09  10 23 18.626   +45 04 43.35  1.0838 1.9529 141.6 22.0 .338  33
2019 01 18 10  10 23 14.475   +45 05 07.54  1.0839 1.9532 141.6 22.0 .352  33
2019 01 18 11  10 23 10.319   +45 05 31.69  1.0840 1.9534 141.7 22.0 .367  33
2019 01 18 12  10 23 06.159   +45 05 55.81  1.0841 1.9537 141.7 22.0 .382  33
2019 01 18 13  10 23 01.993   +45 06 19.88  1.0841 1.9539 141.7 22.0 .397  33
2019 01 18 14  10 22 57.823   +45 06 43.92  1.0842 1.9542 141.8 22.0 .412  33
2019 01 18 15  10 22 53.648   +45 07 07.92  1.0843 1.9544 141.8 22.0 .427  33
2019 01 18 16  10 22 49.467   +45 07 31.88  1.0844 1.9547 141.8 22.0 .443  33
2019 01 18 17  10 22 45.282   +45 07 55.80  1.0845 1.9549 141.8 22.0 .458  33
2019 01 18 18  10 22 41.093   +45 08 19.68  1.0845 1.9552 141.9 22.0 .474  33
2019 01 18 19  10 22 36.898   +45 08 43.53  1.0846 1.9554 141.9 22.0 .489  33
2019 01 18 20  10 22 32.698   +45 09 07.33  1.0847 1.9556 141.9 22.0 .505  33
2019 01 18 21  10 22 28.494   +45 09 31.10  1.0848 1.9559 142.0 22.0 .521  32
2019 01 18 22  10 22 24.285   +45 09 54.82  1.0848 1.9561 142.0 22.0 .537  32
2019 01 18 23  10 22 20.071   +45 10 18.51  1.0849 1.9564 142.0 22.0 .553  32
2019 01 19 00  10 22 15.852   +45 10 42.16  1.0850 1.9566 142.0 22.0 .570  32
2019 01 19 01  10 22 11.628   +45 11 05.77  1.0851 1.9569 142.1 22.0 .586  32
2019 01 19 02  10 22 07.400   +45 11 29.34  1.0852 1.9571 142.1 22.0 .603  32
2019 01 19 03  10 22 03.167   +45 11 52.87  1.0852 1.9574 142.1 22.0 .619  32
2019 01 19 04  10 21 58.929   +45 12 16.36  1.0853 1.9576 142.2 22.0 .636  32
2019 01 19 05  10 21 54.686   +45 12 39.81  1.0854 1.9579 142.2 22.0 .653  32
2019 01 19 06  10 21 50.439   +45 13 03.22  1.0855 1.9581 142.2 22.0 .670  32
2019 01 19 07  10 21 46.187   +45 13 26.59  1.0856 1.9584 142.2 22.0 .687  32
2019 01 19 08  10 21 41.930   +45 13 49.92  1.0857 1.9586 142.3 22.0 .704  32
2019 01 19 09  10 21 37.669   +45 14 13.21  1.0857 1.9589 142.3 22.0 .722  32
2019 01 19 10  10 21 33.402   +45 14 36.46  1.0858 1.9591 142.3 22.0 .739  32
2019 01 19 11  10 21 29.131   +45 14 59.67  1.0859 1.9593 142.4 22.0 .757  31
2019 01 19 12  10 21 24.856   +45 15 22.84  1.0860 1.9596 142.4 22.0 .775  31
2019 01 19 13  10 21 20.576   +45 15 45.97  1.0861 1.9598 142.4 22.0 .793  31
2019 01 19 14  10 21 16.291   +45 16 09.06  1.0862 1.9601 142.4 22.0 .811  31